Location: Branche des Alpilles
(43.6087°N, 4.6976°E)
Time: 11:58:04
(UTC+00:00)

Okean-O - Pass Details

Date: 30 November 2020
Orbit: 639 x 640 km, 98.2° (Epoch: 26 January)

Event Time Altitude Azimuth Distance (km) Brightness Sun altitude
Rises 17:33:34 0° 143° (SE) 2,932 5.8 -15.4°
Reaches altitude 10° 17:35:53 10° 134° (SE) 2,028 4.9 -15.8°
Maximum altitude 17:39:53 35° 69° (ENE) 1,043 3.2 -16.5°
Drops below altitude 10° 17:43:55 10° 4° (N) 2,042 5.0 -17.2°
Sets 17:46:16 0° 356° (N) 2,956 6.0 -17.7°
